Regional Weather Roundup
Issued by NWS Glasgow, MT

Home | Current Version | Previous Version | Text Only | Print | Product List | Glossary On
Versions: 1 2 3 4 5 6 7 8 9 10 11 12 13 14 15 16 17 18 19 20 21 22 23 24 25 26 27
000
ASUS45 KGGW 230415
RWRGGW
HOURLY REGIONAL WEATHER ROUNDUP FOR NORTHEAST MONTANA
NATIONAL WEATHER SERVICE GLASGOW MONTANA
1000 PM MDT SAT JUL 22 2017

NOTE: "FAIR" INDICATES FEW OR NO CLOUDS BELOW 12,000 FEET WITH NO
SIGNIFICANT WEATHER AND/OR OBSTRUCTIONS TO VISISBILITY.

NORTHEAST MONTANA


CITY           SKY/WX    TMP DP  RH WIND       PRES   REMARKS
GLASGOW        CLEAR     70  46  42 MISG      30.03R
PLENTYWOOD       N/A     67  47  48 NE7         N/A
WOLF POINT     CLEAR     73  45  36 NE8       30.04R
JORDAN           N/A     73  42  32 E7        30.06R
WINNETT          N/A     76  34  21 E6          N/A
SIDNEY         CLEAR     71  47  42 N7        30.04R
GLENDIVE       CLEAR     72  45  37 N9        30.06R
MALTA            N/A     73  44  35 SE2         N/A
SCOBEY           N/A     61  45  55 CALM      30.06R

FORT PECK REPORTS


CITY           SKY/WX    TMP DP  RH WIND       PRES   REMARKS
FORT PECK        N/A     76  48  37 NE9         N/A
THE PINES        N/A     73  57  57 NE5         N/A

SOUTHEAST MONTANA


CITY           SKY/WX    TMP DP  RH WIND       PRES   REMARKS
BILLINGS       PTCLDY    77  34  21 NE7       30.08R
MILES CITY     CLEAR     77  40  26 NE9       30.05R
BAKER          CLEAR     67  40  37 NE6       30.09R
LIVINGSTON     CLEAR     64  33  31 S7        30.16R

CENTRAL MONTANA


CITY           SKY/WX    TMP DP  RH WIND       PRES   REMARKS
HAVRE          CLEAR     71  48  43 SE7       30.01R
LEWISTOWN      CLEAR     68  37  32 S5        30.14R
GREAT FALLS    CLEAR     77  37  23 CALM      30.08R
CUT BANK       CLEAR     70  44  39 W5        30.09R
HELENA         CLEAR     78  41  26 W8        30.12R
BUTTE          CLEAR     72  39  30 NW5       30.25R
BOZEMAN        CLEAR     67  42  40 SE8       30.16R

WESTERN MONTANA


CITY           SKY/WX    TMP DP  RH WIND       PRES   REMARKS
MISSOULA       CLEAR     77  42  28 W7        30.08R
KALISPELL      NOT AVBL

NORTH DAKOTA


CITY           SKY/WX    TMP DP  RH WIND       PRES   REMARKS
WILLISTON      CLEAR     69  50  50 N7        30.04R
DICKINSON      CLEAR     68  49  50 N7        30.04R
MINOT          CLEAR     64  53  67 NW8       30.02R
BISMARCK       CLEAR     70  55  59 NE7       30.02R

SOUTHERN SASKATCHEWAN


CITY           SKY/WX    TMP DP  RH WIND       PRES   REMARKS
REGINA         PTCLDY    66  54  63 E5        30.03R
ESTEVAN        PTCLDY    61  57  88 NE17      30.05R
SWIFT CURRENT  CLEAR     61  50  67 SE7       30.04R





USA.gov is the U.S. government's official web portal to all federal, state and local government web resources and services.